• In Hungary
  • List of Countries
  • For 7 days
  • Water Temperature
  • Satellite Maps
  • Weather Map
  • News
  • Weather Widgets
  • user-avatar
    Login

    Hourly Weather Lapshar

    Today, 25 September, Tuesday

    Time Temperature Precipitation Wind Pressure Humidity
    00:00 +7°C° 0 mm 0 mps 743 mmHg 94%
    01:00 +8°C° 0 mm 1 mps 742 mmHg 94%
    02:00 +8°C° 0 mm 1 mps 742 mmHg 94%
    03:00 +8°C° 0 mm 1 mps 742 mmHg 93%
    04:00 +8°C° 0.1 mm 1 mps 742 mmHg 93%
    05:00 +8°C° 0.1 mm 1 mps 741 mmHg 94%
    06:00 +8°C° 0.1 mm 2 mps 741 mmHg 94%
    07:00 +8°C° 0.5 mm 2 mps 741 mmHg 92%
    08:00 +8°C° 0.5 mm 3 mps 741 mmHg 91%
    09:00 +8°C° 0 mm 4 mps 740 mmHg 88%
    10:00 +9°C° 0.2 mm 5 mps 740 mmHg 86%
    11:00 +9°C° 0.2 mm 6 mps 740 mmHg 83%
    12:00 +10°C° 0.2 mm 7 mps 740 mmHg 80%
    13:00 +10°C° 0.9 mm 7 mps 740 mmHg 82%
    14:00 +10°C° 0.9 mm 7 mps 739 mmHg 84%
    15:00 +9°C° 0.9 mm 7 mps 739 mmHg 86%
    16:00 +9°C° 1 mm 7 mps 739 mmHg 87%
    17:00 +9°C° 1 mm 7 mps 739 mmHg 88%
    18:00 +9°C° 1 mm 7 mps 739 mmHg 88%
    19:00 +9°C° 0.2 mm 6 mps 739 mmHg 89%
    20:00 +9°C° 0.2 mm 6 mps 739 mmHg 90%
    21:00 +10°C° 0.2 mm 5 mps 739 mmHg 90%
    22:00 +9°C° 0.3 mm 5 mps 739 mmHg 90%
    23:00 +10°C° 0.3 mm 4 mps 739 mmHg 89%

    Tomorrow, 26 September, Wednesday

    Time Temperature Precipitation Wind Pressure Humidity
    00:00 +8°C° 0.3 mm 4 mps 739 mmHg 89%
    01:00 +7°C° 0 mm 4 mps 740 mmHg 90%
    02:00 +6°C° 0 mm 4 mps 740 mmHg 91%
    03:00 +6°C° 0 mm 4 mps 740 mmHg 92%
    04:00 +5°C° 0 mm 4 mps 741 mmHg 92%
    05:00 +5°C° 0 mm 4 mps 741 mmHg 92%
    06:00 +5°C° 0 mm 4 mps 742 mmHg 92%
    07:00 +6°C° 0 mm 5 mps 742 mmHg 90%
    08:00 +6°C° 0 mm 5 mps 743 mmHg 88%
    09:00 +7°C° 0 mm 5 mps 744 mmHg 86%
    10:00 +7°C° 0 mm 5 mps 744 mmHg 84%
    11:00 +8°C° 0 mm 5 mps 745 mmHg 82%
    12:00 +9°C° 0 mm 5 mps 745 mmHg 80%
    13:00 +9°C° 0.1 mm 5 mps 745 mmHg 78%
    14:00 +9°C° 0.1 mm 5 mps 746 mmHg 77%
    15:00 +10°C° 0.1 mm 4 mps 746 mmHg 76%
    16:00 +8°C° 0 mm 4 mps 746 mmHg 79%
    17:00 +8°C° 0 mm 3 mps 747 mmHg 82%
    18:00 +8°C° 0 mm 3 mps 747 mmHg 85%
    19:00 +7°C° 0 mm 3 mps 747 mmHg 87%
    20:00 +5°C° 0 mm 3 mps 747 mmHg 88%
    21:00 +6°C° 0 mm 2 mps 747 mmHg 90%
    22:00 +5°C° 0 mm 2 mps 747 mmHg 91%
    23:00 +3°C° 0 mm 3 mps 747 mmHg 91%

    Day after tomorrow, 27 September, Thursday

    Time Temperature Precipitation Wind Pressure Humidity
    00:00 +3°C° 0 mm 3 mps 747 mmHg 92%
    01:00 +2°C° 0 mm 3 mps 746 mmHg 91%
    02:00 +2°C° 0 mm 3 mps 746 mmHg 90%
    03:00 +2°C° 0 mm 3 mps 746 mmHg 90%
    04:00 +1°C° 0 mm 4 mps 745 mmHg 89%
    05:00 +1°C° 0 mm 4 mps 744 mmHg 89%
    06:00 +1°C° 0 mm 4 mps 743 mmHg 89%
    07:00 +2°C° 0 mm 5 mps 743 mmHg 81%
    08:00 +3°C° 0 mm 6 mps 742 mmHg 74%
    09:00 +5°C° 0 mm 7 mps 741 mmHg 66%
    10:00 +5°C° 0 mm 7 mps 741 mmHg 64%
    11:00 +6°C° 0 mm 8 mps 740 mmHg 61%
    12:00 +7°C° 0 mm 8 mps 739 mmHg 58%
    13:00 +6°C° 0.3 mm 8 mps 738 mmHg 63%
    14:00 +5°C° 0.3 mm 8 mps 738 mmHg 68%
    15:00 +5°C° 0.3 mm 8 mps 737 mmHg 73%
    16:00 +4°C° 0.7 mm 8 mps 736 mmHg 77%
    17:00 +4°C° 0.7 mm 7 mps 735 mmHg 81%
    18:00 +3°C° 0.7 mm 7 mps 735 mmHg 84%
    19:00 +3°C° 0.6 mm 6 mps 734 mmHg 87%
    20:00 +3°C° 0.6 mm 5 mps 734 mmHg 89%
    21:00 +3°C° 0.6 mm 5 mps 734 mmHg 91%
    22:00 +4°C° 0.1 mm 4 mps 734 mmHg 92%
    23:00 +4°C° 0.1 mm 4 mps 734 mmHg 93%

    28 September, Friday

    Time Temperature Precipitation Wind Pressure Humidity
    00:00 +4°C° 0.1 mm 4 mps 734 mmHg 94%
    01:00 +4°C° 0 mm 4 mps 734 mmHg 94%
    02:00 +3°C° 0 mm 4 mps 735 mmHg 93%
    03:00 +3°C° 0 mm 4 mps 735 mmHg 93%
    04:00 +2°C° 0 mm 5 mps 735 mmHg 93%
    05:00 +1°C° 0 mm 5 mps 736 mmHg 93%
    06:00 +1°C° 0 mm 5 mps 736 mmHg 94%
    07:00 +2°C° 0 mm 5 mps 737 mmHg 90%
    08:00 +3°C° 0 mm 6 mps 737 mmHg 87%
    09:00 +3°C° 0 mm 6 mps 737 mmHg 84%
    10:00 +4°C° 0 mm 6 mps 738 mmHg 82%
    11:00 +4°C° 0 mm 6 mps 738 mmHg 81%
    12:00 +5°C° 0 mm 6 mps 738 mmHg 79%
    13:00 +6°C° 0 mm 5 mps 738 mmHg 78%
    14:00 +6°C° 0 mm 5 mps 738 mmHg 77%
    15:00 +6°C° 0 mm 5 mps 738 mmHg 75%
    16:00 +6°C° 0.3 mm 5 mps 738 mmHg 77%
    17:00 +6°C° 0.3 mm 4 mps 738 mmHg 79%
    18:00 +5°C° 0.3 mm 4 mps 738 mmHg 82%
    19:00 +5°C° 1.1 mm 5 mps 736 mmHg 84%
    20:00 +4°C° 1.1 mm 6 mps 735 mmHg 86%
    21:00 +4°C° 1.1 mm 7 mps 734 mmHg 89%
    22:00 +6°C° 1.6 mm 7 mps 733 mmHg 89%
    23:00 +7°C° 1.6 mm 8 mps 731 mmHg 88%

    29 September, Saturday

    Time Temperature Precipitation Wind Pressure Humidity
    00:00 +9°C° 1.6 mm 8 mps 730 mmHg 88%
    01:00 +7°C° 0.4 mm 9 mps 730 mmHg 85%
    02:00 +7°C° 0.4 mm 9 mps 731 mmHg 82%
    03:00 +6°C° 0.4 mm 10 mps 731 mmHg 79%
    04:00 +5°C° 0 mm 9 mps 733 mmHg 80%
    05:00 +4°C° 0 mm 8 mps 734 mmHg 81%
    06:00 +2°C° 0 mm 8 mps 736 mmHg 82%
    07:00 +3°C° 0 mm 7 mps 738 mmHg 78%
    08:00 +2°C° 0 mm 7 mps 739 mmHg 75%
    09:00 +2°C° 0 mm 7 mps 740 mmHg 71%
    10:00 +3°C° 0 mm 7 mps 741 mmHg 66%
    11:00 +3°C° 0 mm 7 mps 742 mmHg 60%
    12:00 +4°C° 0 mm 7 mps 743 mmHg 55%
    13:00 +4°C° 0 mm 7 mps 744 mmHg 55%
    14:00 +4°C° 0 mm 7 mps 744 mmHg 54%
    15:00 +4°C° 0 mm 6 mps 745 mmHg 54%
    16:00 +3°C° 0 mm 5 mps 746 mmHg 59%
    17:00 +3°C° 0 mm 4 mps 746 mmHg 63%
    18:00 +1°C° 0 mm 3 mps 747 mmHg 68%
    19:00 +1°C° 0 mm 3 mps 747 mmHg 69%
    20:00 +1°C° 0 mm 3 mps 748 mmHg 69%
    21:00 +1°C° 0 mm 3 mps 748 mmHg 70%
    22:00 0°C° 0 mm 3 mps 749 mmHg 72%
    23:00 0°C° 0 mm 3 mps 749 mmHg 74%

    30 September, Sunday

    Time Temperature Precipitation Wind Pressure Humidity
    00:00 0°C° 0 mm 3 mps 749 mmHg 76%
    01:00 -1°C° 0 mm 2 mps 750 mmHg 79%
    02:00 -1°C° 0 mm 2 mps 750 mmHg 82%
    03:00 -1°C° 0 mm 2 mps 750 mmHg 84%
    04:00 -1°C° 0 mm 2 mps 751 mmHg 85%
    05:00 -2°C° 0 mm 2 mps 751 mmHg 86%
    06:00 -2°C° 0 mm 2 mps 751 mmHg 87%
    07:00 0°C° 0 mm 3 mps 752 mmHg 81%
    08:00 +1°C° 0 mm 3 mps 752 mmHg 74%
    09:00 +3°C° 0 mm 3 mps 752 mmHg 67%
    10:00 +3°C° 0 mm 3 mps 752 mmHg 61%
    11:00 +4°C° 0 mm 4 mps 752 mmHg 55%
    12:00 +5°C° 0 mm 4 mps 752 mmHg 48%
    13:00 +5°C° 0 mm 4 mps 752 mmHg 48%
    14:00 +5°C° 0 mm 3 mps 752 mmHg 47%
    15:00 +5°C° 0 mm 3 mps 752 mmHg 46%
    16:00 +4°C° 0 mm 3 mps 752 mmHg 51%
    17:00 +4°C° 0 mm 2 mps 752 mmHg 56%
    18:00 +3°C° 0 mm 2 mps 752 mmHg 61%
    19:00 +2°C° 0 mm 2 mps 752 mmHg 63%
    20:00 +2°C° 0 mm 2 mps 752 mmHg 65%
    21:00 0°C° 0 mm 3 mps 752 mmHg 67%
    22:00 0°C° 0 mm 3 mps 752 mmHg 69%
    23:00 0°C° 0 mm 3 mps 752 mmHg 71%
    Show more